This demonstration page uses our WeatherBlox Daily Observations layout. Learn more.

Hourly Observations for May 8, 2019

Temp ( °F °C ) Dew Point ( °F °C ) Humidity (%) Winds ( mph kmh ) Pressure ( in mb ) Visibility ( mi km ) Precip ( " mm )
12:05 am 00:05 Cloudy with Light Rain 54 12.2 52 11.1 93 93 ESE 12 19 29.97 1015 4 6.437376 0.001 0.001
12:54 am 00:54 Cloudy with Light Rain 54 12.2 52 11.1 93 93 E 9 15 29.91 1013 5 8.04672 0.02 0.508
1:54 am 01:54 Cloudy with Light Rain 54 12.2 52 11.1 93 93 E 9 15 29.88 1012 4 6.437376 0.01 0.254
2:54 am 02:54 Cloudy with Light Rain 54 12.2 52 11.1 93 93 E 9 15 29.85 1011 5 8.04672 0.04 1.016
3:28 am 03:28 Cloudy with Rain 54 12.2 52 11.1 93 93 E 8 13 29.85 1011 4 6.437376 0.06 1.524
3:54 am 03:54 Cloudy with Rain 54 12.2 52 11.1 93 93 ENE 8 13 29.83 1010 4 6.437376 0.11 2.794
4:54 am 04:54 Cloudy with Light Rain 54 12.2 52 11.1 93 93 E 10 17 29.77 1008 7 11.265408 0.1 2.54
5:54 am 05:54 Cloudy with Rain 53 11.7 51 10.6 93 93 ENE 12 19 29.74 1007 7 11.265408 0.1 2.54
6:54 am 06:54 Cloudy with Light Rain 53 11.7 51 10.6 93 93 NE 10 17 29.68 1005 8 12.874752 0.1 2.54
7:54 am 07:54 Cloudy with Rain 53 11.7 52 11.1 96 96 NE 6 9 29.68 1005 3 4.828032 0.09 2.286
8:54 am 08:54 Cloudy with Light Rain 54 12.2 52 11.1 93 93 NNE 12 19 29.62 1003 4 6.437376 0.11 2.794
9:54 am 09:54 Cloudy 54 12.2 51 10.6 90 90 NNE 8 13 29.62 1003 10 16.09344 0.01 0.254
10:54 am 10:54 Cloudy with Light Rain 54 12.2 52 11.1 93 93 NNE 6 9 29.65 1004 3 4.828032 0.001 0.001
11:01 am 11:01 Cloudy with Light Rain 55 12.8 52 11.1 90 90 N 6 9 29.65 1004 2.5 4.02336 0.01 0.254
11:10 am 11:10 Cloudy with Light Rain 55 12.8 52 11.1 90 90 N 6 9 29.65 1004 3 4.828032 0.02 0.508
11:17 am 11:17 Cloudy with Light Rain 55 12.8 53 11.7 93 93 NNW 5 7 29.65 1004 3 4.828032 0.02 0.508
11:54 am 11:54 Cloudy with Mist and Fog 58 14.4 54 12.2 87 87 NNW 12 19 29.62 1003 3 4.828032 0.02 0.508
12:39 pm 12:39 Cloudy 58 14.4 53 11.7 84 84 NNW 12 19 29.59 1002 10 16.09344 0.001 0.001
12:54 pm 12:54 Cloudy 58 14.4 53 11.7 84 84 NNW 9 15 29.62 1003 10 16.09344 0.001 0.001
1:44 pm 13:44 Cloudy 57 13.9 51 10.6 81 81 NNW 8 13 29.62 1003 10 16.09344 0.001 0.001
1:54 pm 13:54 Cloudy 56 13.3 51 10.6 84 84 NW 10 17 29.62 1003 10 16.09344 0.001 0.001
2:54 pm 14:54 Cloudy 56 13.3 50 10 81 81 NW 12 19 29.65 1004 10 16.09344 0 0
3:54 pm 15:54 Cloudy 55 12.8 48 8.9 77 77 NW 10 17 29.68 1005 10 16.09344 0 0
4:54 pm 16:54 Cloudy 54 12.2 46 7.8 75 75 NNW 14 22 29.68 1005 10 16.09344 0 0
5:03 pm 17:03 Cloudy 54 12.2 46 7.8 75 75 NNW 16 26 29.71 1006 10 16.09344 0 0
5:54 pm 17:54 Cloudy 53 11.7 44 6.7 72 72 NNW 17 28 29.71 1006 10 16.09344 0 0
6:54 pm 18:54 Cloudy 52 11.1 43 6.1 72 72 N 17 28 29.74 1007 10 16.09344 0 0
7:54 pm 19:54 Cloudy 50 10 42 5.6 74 74 N 21 33 29.77 1008 10 16.09344 0 0
8:54 pm 20:54 Cloudy 49 9.4 41 5 74 74 N 18 30 29.8 1009 10 16.09344 0 0
9:54 pm 21:54 Cloudy 47 8.3 39 3.9 74 74 N 25 41 29.8 1009 10 16.09344 0 0
10:20 pm 22:20 Cloudy 46 7.8 39 3.9 77 77 N 29 46 29.85 1011 10 16.09344 0 0
10:27 pm 22:27 Cloudy 46 7.8 38 3.3 73 73 N 20 31 29.85 1011 10 16.09344 0 0
10:37 pm 22:37 Cloudy 46 7.8 38 3.3 73 73 N 23 37 29.85 1011 10 16.09344 0 0
10:46 pm 22:46 Cloudy 45 7.2 38 3.3 77 77 N 24 39 29.85 1011 10 16.09344 0 0
10:54 pm 22:54 Cloudy 45 7.2 37 2.8 74 74 N 18 30 29.83 1010 10 16.09344 0 0
11:54 pm 23:54 Cloudy 43 6.1 36 2.2 76 76 N 20 31 29.83 1010 10 16.09344 0 0

Powered by AerisWeather